Satellite-Ground Cal/Val Site Overpasses Predictions

Prediction of Satellite NPP Overpassing Cal/Val Site: Antarctic Dome C

Ground Cal/Val Site Location: Latitude: -75.10, Longitude: 123.35; Satellite-Ground Site NADIR distance within 100 km.

Table of predicted overpasses for the next 14.0 days since TLE Epoch: 7/2/2016
Interval Starting Time Ending Time Minimum Distance Time Minimum Distance (km)
1 07/02/2016 07:32:22 07/02/2016 07:32:51 07/02/2016 07:32:36 2.36
2 07/05/2016 14:55:47 07/05/2016 14:56:16 07/05/2016 14:56:02 20.60
3 07/06/2016 14:37:06 07/06/2016 14:37:20 07/06/2016 14:37:13 86.45
4 07/07/2016 07:38:37 07/07/2016 07:39:04 07/07/2016 07:38:51 36.70
5 07/08/2016 07:19:51 07/08/2016 07:20:11 07/08/2016 07:20:01 73.39
6 07/10/2016 15:02:05 07/10/2016 15:02:29 07/10/2016 15:02:17 57.58
7 07/11/2016 14:43:14 07/11/2016 14:43:39 07/11/2016 14:43:27 51.57
8 07/12/2016 07:44:56 07/12/2016 07:45:16 07/12/2016 07:45:06 71.83
9 07/13/2016 07:26:03 07/13/2016 07:26:30 07/13/2016 07:26:17 36.12
